Location: Frysztak
(49.8373°N, 21.6089°E)
Time: 23:12:41
(UTC+02:00)

ISS - Pass Details

Date: 01 October 2018
Orbit: 403 x 408 km, 51.6° (Epoch: 17 October)

Event Time Altitude Azimuth Distance (km) Brightness Sun altitude
Rises 20:39:52 0° 284° (WNW) 2,341 1.4 -24.0°
Reaches altitude 10° 20:41:58 10° 286° (WNW) 1,478 0.1 -24.3°
Enters shadow 20:44:00 34° 293° (WNW) 695 -2.1 -24.6°
